Location: Shannon
(40.5500°S, 175.4167°E)
Time: 03:06:52
(UTC+00:00)

Cosmos 1805 Rocket - Visible Passes

Search period start: 19 February 2026 00:00
Search period end: 01 March 2026 00:00
Orbit: 598 x 623 km, 82.5° (Epoch: 18 February)

Date Brightness Start Highest point End Pass type
(mag) Time Alt. Az. Time Alt. Az. Time Alt. Az.
19 Feb 6.5 12:34:41 10° S 12:35:18 14° SSW 12:35:18 14° SSW visible
20 Feb 6.7 12:49:36 10° SSW 12:49:48 11° SSW 12:49:48 11° SSW visible
21 Feb 6.5 11:26:58 10° SSE 11:27:21 12° SSE 11:27:21 12° SSE visible
22 Feb 6.5 11:41:19 10° S 11:41:52 13° S 11:41:52 13° S visible
23 Feb 6.6 11:55:57 10° S 11:56:24 13° S 11:56:24 13° S visible
24 Feb 6.8 12:10:47 10° SSW 12:10:56 11° SSW 12:10:56 11° SSW visible
25 Feb 6.5 10:48:26 10° SSE 10:48:31 10° SSE 10:48:31 10° SSE visible
26 Feb 6.5 11:02:41 10° S 11:03:04 12° S 11:03:04 12° S visible
27 Feb 6.6 11:17:13 10° S 11:17:38 12° S 11:17:38 12° S visible
28 Feb 6.7 11:31:57 10° SSW 11:32:12 11° SSW 11:32:12 11° SSW visible
